Weather History for Birmingham, United Kingdom

Change the Weather History Date:

Saturday, September 29, 2012

  Actual Average Record
Temperature  
Mean Temperature 50 °F -  
Max Temperature 57 °F 57 °F 80 °F (2011)
Min Temperature 44 °F 43 °F 35 °F (2003)
Degree Days  
Heating Degree Days 14    
Moisture  
Dew Point 42 °F    
Average Humidity 74    
Maximum Humidity 94    
Minimum Humidity 51    
Precipitation  
Precipitation 0.00 in 0.07 in - ()
Sea Level Pressure  
Sea Level Pressure 30.03 in    
Wind  
Wind Speed 7 mph ()    
Max Wind Speed 16 mph    
Max Gust Speed -    
Visibility 6.2 miles    
Events      
Averages and records for this station are not official NWS values.
T = Trace of Precipitation, MM = Missing Value Source: Averaged Metar Reports

Daily Weather History Graph

Daily Weather History Graph

Search for Another Location

Airport:

Trip Planner

Search our weather history database for the weather conditions in past years. The results will help you decide how hot, cold, wet, or windy it might be!

Date:

Astronomy

Sep. 29, 2012 Rise Set
Actual Time 7:05 AM BST 6:48 PM BST
Civil Twilight 6:31 AM BST 7:22 PM BST
Nautical Twilight 5:51 AM BST 8:01 PM BST
Astronomical Twilight 5:10 AM BST 8:42 PM BST
Moon 6:08 PM BST (9/29) 6:22 AM BST (9/29)
Length of Visible Light 12h 50m
Length of Day
11h 42m
Full, 100% of the Moon is Illuminated
Sep 29
Full
Sep 30
Full
Oct 8
Last Quarter
Oct 15
New
Oct 22
First Quarter

Hourly Weather History & Observations

Time (BST) Temp. Windchill Dew Point Humidity Pressure Visibility Wind Dir Wind Speed Gust Speed Precip Events Conditions
12:20 AM 50.0 °F - 48.2 °F 94% 29.92 in 6.2 mi WSW 4.6 mph - N/A   Partly Cloudy
12:50 AM 50.0 °F - 46.4 °F 87% 29.92 in 6.2 mi WSW 4.6 mph - N/A   Partly Cloudy
1:20 AM 48.2 °F - 46.4 °F 93% 29.92 in - WSW 4.6 mph - N/A   Clear
1:50 AM 48.2 °F - 46.4 °F 93% 29.92 in 6.2 mi West 5.8 mph - N/A   Unknown
2:20 AM 48.2 °F - 46.4 °F 93% 29.92 in 6.2 mi WSW 6.9 mph - N/A   Scattered Clouds
2:50 AM 48.2 °F - 44.6 °F 87% 29.92 in 6.2 mi WSW 5.8 mph - N/A   Unknown
3:20 AM 48.2 °F - 44.6 °F 87% 29.92 in - SW 8.1 mph - N/A   Clear
3:50 AM 46.4 °F 43.5 °F 44.6 °F 93% 29.92 in - WSW 5.8 mph - N/A   Clear
4:20 AM 46.4 °F 42.9 °F 44.6 °F 93% 29.95 in - SSW 6.9 mph - N/A   Clear
4:50 AM 46.4 °F 42.9 °F 42.8 °F 87% 29.95 in - SW 6.9 mph - N/A   Clear
5:20 AM 44.6 °F 40.2 °F 42.8 °F 93% 29.95 in - SW 8.1 mph - N/A   Clear
5:50 AM 44.6 °F 41.4 °F 41.0 °F 87% 29.95 in - SW 5.8 mph - N/A   Clear
6:20 AM 44.6 °F 41.4 °F 41.0 °F 87% 29.98 in - WSW 5.8 mph - N/A   Clear
6:50 AM 44.6 °F 40.7 °F 41.0 °F 87% 29.98 in - West 6.9 mph - N/A   Clear
7:20 AM 44.6 °F 40.7 °F 41.0 °F 87% 29.98 in - WSW 6.9 mph - N/A   Clear
7:50 AM 44.6 °F 40.2 °F 41.0 °F 87% 29.98 in - West 8.1 mph - N/A   Clear
8:20 AM 48.2 °F - 42.8 °F 82% 30.01 in - WSW 5.8 mph - N/A   Clear
8:50 AM 48.2 °F - 42.8 °F 82% 30.01 in - West 5.8 mph - N/A   Clear
9:20 AM 50.0 °F - 42.8 °F 76% 30.04 in - West 9.2 mph - N/A   Clear
9:50 AM 51.8 °F - 42.8 °F 71% 30.04 in - West 11.5 mph - N/A   Clear
10:20 AM 51.8 °F - 42.8 °F 71% 30.04 in 6.2 mi West 11.5 mph - N/A   Partly Cloudy
10:50 AM 53.6 °F - 44.6 °F 72% 30.06 in 6.2 mi WSW 10.4 mph - N/A   Partly Cloudy
11:20 AM 55.4 °F - 42.8 °F 63% 30.06 in 6.2 mi West 15.0 mph - N/A   Scattered Clouds
11:50 AM 55.4 °F - 41.0 °F 58% 30.06 in 6.2 mi West 13.8 mph - N/A   Scattered Clouds
12:20 PM 55.4 °F - 42.8 °F 63% 30.06 in 6.2 mi West 12.7 mph - N/A   Scattered Clouds
12:50 PM 55.4 °F - 41.0 °F 58% 30.06 in 6.2 mi West 16.1 mph - N/A   Mostly Cloudy
1:20 PM 57.2 °F - 41.0 °F 55% 30.06 in 6.2 mi WNW 15.0 mph - N/A   Scattered Clouds
1:50 PM 57.2 °F - 39.2 °F 51% 30.06 in 6.2 mi West 16.1 mph - N/A   Scattered Clouds
2:20 PM 57.2 °F - 41.0 °F 55% 30.06 in 6.2 mi West 11.5 mph - N/A   Scattered Clouds
2:50 PM 57.2 °F - 39.2 °F 51% 30.06 in 6.2 mi WNW 16.1 mph - N/A   Scattered Clouds
3:20 PM 55.4 °F - 39.2 °F 54% 30.06 in 6.2 mi WNW 13.8 mph - N/A   Scattered Clouds
3:50 PM 57.2 °F - 41.0 °F 55% 30.06 in 6.2 mi WNW 11.5 mph - N/A   Scattered Clouds
4:20 PM 57.2 °F - 39.2 °F 51% 30.06 in 6.2 mi West 13.8 mph - N/A   Scattered Clouds
4:50 PM 55.4 °F - 39.2 °F 54% 30.06 in 6.2 mi WNW 11.5 mph - N/A   Scattered Clouds
5:20 PM 55.4 °F - 39.2 °F 54% 30.06 in 6.2 mi WNW 11.5 mph - N/A   Partly Cloudy
5:50 PM 53.6 °F - 39.2 °F 58% 30.09 in 6.2 mi WNW 12.7 mph - N/A   Partly Cloudy
6:20 PM 53.6 °F - 39.2 °F 58% 30.09 in 6.2 mi WNW 9.2 mph - N/A   Partly Cloudy
6:50 PM 51.8 °F - 39.2 °F 62% 30.09 in 6.2 mi West 9.2 mph - N/A   Partly Cloudy
7:20 PM 50.0 °F - 41.0 °F 71% 30.09 in - West 8.1 mph - N/A   Clear
7:50 PM 50.0 °F - 41.0 °F 71% 30.12 in - WSW 5.8 mph - N/A   Clear
8:20 PM 50.0 °F - 41.0 °F 71% 30.12 in - SSW 6.9 mph - N/A   Clear
8:50 PM 48.2 °F - 41.0 °F 76% 30.12 in - SW 6.9 mph - N/A   Clear
9:20 PM 48.2 °F - 41.0 °F 76% 30.12 in - WSW 5.8 mph - N/A   Clear
9:50 PM 46.4 °F 43.5 °F 41.0 °F 81% 30.12 in - SSW 5.8 mph - N/A   Clear
10:20 PM 48.2 °F - 41.0 °F 76% 30.12 in - SW 8.1 mph - N/A   Clear
10:50 PM 46.4 °F 41.9 °F 41.0 °F 81% 30.12 in - SW 9.2 mph - N/A   Clear
11:20 PM 46.4 °F 42.4 °F 41.0 °F 81% 30.12 in - SW 8.1 mph - N/A   Clear
11:50 PM 46.4 °F 41.9 °F 41.0 °F 81% 30.12 in - SSW 9.2 mph - N/A   Clear